• en France
  • Liste des pays
  • À 7 jours
  • Température de l'eau
  • Carte satellitaire
  • Carte météo
  • Widgets météo
  • user-avatar
    Se connecter

    Météo par heure à Ibigs

    Ce jour, 19 Août, Dimanche

    Heure Température Précipitation Vent Pression Humidité
    00:00 +20°C° 0 mm 1 m/s 650 mmHg 51%
    01:00 +20°C° 0 mm 1 m/s 650 mmHg 50%
    02:00 +20°C° 0 mm 1 m/s 649 mmHg 51%
    03:00 +19°C° 0 mm 1 m/s 649 mmHg 52%
    04:00 +19°C° 0 mm 1 m/s 649 mmHg 52%
    05:00 +20°C° 0 mm 1 m/s 649 mmHg 51%
    06:00 +21°C° 0 mm 1 m/s 650 mmHg 51%
    07:00 +21°C° 0 mm 1 m/s 650 mmHg 50%
    08:00 +24°C° 0 mm 2 m/s 651 mmHg 44%
    09:00 +26°C° 0 mm 2 m/s 651 mmHg 38%
    10:00 +29°C° 0 mm 3 m/s 652 mmHg 33%
    11:00 +30°C° 0 mm 3 m/s 652 mmHg 30%
    12:00 +31°C° 0 mm 3 m/s 651 mmHg 27%
    13:00 +33°C° 0 mm 3 m/s 651 mmHg 24%
    14:00 +33°C° 0 mm 3 m/s 650 mmHg 25%
    15:00 +33°C° 0 mm 3 m/s 650 mmHg 25%
    16:00 +31°C° 0 mm 2 m/s 649 mmHg 26%
    17:00 +29°C° 0 mm 2 m/s 649 mmHg 31%
    18:00 +26°C° 0 mm 2 m/s 649 mmHg 36%
    19:00 +24°C° 0 mm 2 m/s 649 mmHg 42%
    20:00 +23°C° 0,2 mm 2 m/s 650 mmHg 41%
    21:00 +21°C° 0,2 mm 2 m/s 650 mmHg 41%
    22:00 +22°C° 0,2 mm 1 m/s 650 mmHg 41%
    23:00 +21°C° 0 mm 1 m/s 650 mmHg 43%

    Demain, 20 Août, Lundi

    Heure Température Précipitation Vent Pression Humidité
    00:00 +21°C° 0 mm 1 m/s 650 mmHg 44%
    01:00 +20°C° 0 mm 1 m/s 650 mmHg 45%
    02:00 +20°C° 0 mm 1 m/s 650 mmHg 48%
    03:00 +20°C° 0 mm 1 m/s 649 mmHg 50%
    04:00 +20°C° 0 mm 1 m/s 649 mmHg 52%
    05:00 +20°C° 0 mm 1 m/s 650 mmHg 52%
    06:00 +21°C° 0 mm 1 m/s 650 mmHg 52%
    07:00 +22°C° 0 mm 1 m/s 650 mmHg 52%
    08:00 +24°C° 0 mm 2 m/s 651 mmHg 46%
    09:00 +26°C° 0 mm 3 m/s 652 mmHg 40%
    10:00 +29°C° 0 mm 3 m/s 652 mmHg 35%
    11:00 +30°C° 0 mm 3 m/s 652 mmHg 32%
    12:00 +31°C° 0 mm 3 m/s 651 mmHg 29%
    13:00 +33°C° 0 mm 3 m/s 651 mmHg 27%
    14:00 +33°C° 0 mm 3 m/s 650 mmHg 27%
    15:00 +33°C° 0 mm 3 m/s 650 mmHg 27%
    16:00 +31°C° 0 mm 3 m/s 649 mmHg 28%
    17:00 +29°C° 0 mm 3 m/s 649 mmHg 33%
    18:00 +26°C° 0 mm 3 m/s 649 mmHg 38%
    19:00 +24°C° 0 mm 3 m/s 649 mmHg 44%
    20:00 +23°C° 0,2 mm 2 m/s 650 mmHg 45%
    21:00 +21°C° 0,2 mm 2 m/s 650 mmHg 46%
    22:00 +21°C° 0,2 mm 2 m/s 651 mmHg 47%
    23:00 +20°C° 0 mm 2 m/s 651 mmHg 48%

    Après-demain, 21 Août, Mardi

    Heure Température Précipitation Vent Pression Humidité
    00:00 +21°C° 0 mm 1 m/s 650 mmHg 50%
    01:00 +20°C° 0 mm 1 m/s 650 mmHg 51%
    02:00 +20°C° 0 mm 1 m/s 650 mmHg 53%
    03:00 +20°C° 0 mm 1 m/s 649 mmHg 55%
    04:00 +20°C° 0 mm 1 m/s 649 mmHg 57%
    05:00 +20°C° 0 mm 1 m/s 650 mmHg 56%
    06:00 +21°C° 0 mm 1 m/s 650 mmHg 55%
    07:00 +22°C° 0 mm 1 m/s 651 mmHg 55%
    08:00 +24°C° 0 mm 2 m/s 651 mmHg 50%
    09:00 +26°C° 0 mm 2 m/s 652 mmHg 45%
    10:00 +28°C° 0 mm 3 m/s 652 mmHg 40%
    11:00 +29°C° 0 mm 3 m/s 652 mmHg 37%
    12:00 +30°C° 0 mm 3 m/s 651 mmHg 34%
    13:00 +31°C° 0 mm 3 m/s 651 mmHg 31%
    14:00 +31°C° 0 mm 3 m/s 650 mmHg 31%
    15:00 +31°C° 0 mm 3 m/s 650 mmHg 31%
    16:00 +31°C° 0 mm 3 m/s 649 mmHg 32%
    17:00 +28°C° 0,1 mm 2 m/s 649 mmHg 38%
    18:00 +26°C° 0,1 mm 2 m/s 649 mmHg 44%
    19:00 +23°C° 0,1 mm 2 m/s 649 mmHg 50%
    20:00 +23°C° 0,2 mm 2 m/s 650 mmHg 50%
    21:00 +21°C° 0,2 mm 2 m/s 650 mmHg 50%
    22:00 +21°C° 0,2 mm 1 m/s 651 mmHg 51%
    23:00 +21°C° 0 mm 1 m/s 650 mmHg 52%

    22 Août, Mercredi

    Heure Température Précipitation Vent Pression Humidité
    00:00 +21°C° 0 mm 1 m/s 650 mmHg 53%
    01:00 +20°C° 0 mm 1 m/s 650 mmHg 54%
    02:00 +20°C° 0 mm 1 m/s 649 mmHg 56%
    03:00 +20°C° 0 mm 1 m/s 649 mmHg 57%
    04:00 +20°C° 0 mm 1 m/s 649 mmHg 58%
    05:00 +20°C° 0,1 mm 1 m/s 649 mmHg 59%
    06:00 +20°C° 0,1 mm 1 m/s 650 mmHg 60%
    07:00 +20°C° 0,1 mm 2 m/s 650 mmHg 60%
    08:00 +23°C° 0,1 mm 2 m/s 651 mmHg 55%
    09:00 +25°C° 0,1 mm 3 m/s 652 mmHg 50%
    10:00 +27°C° 0,1 mm 3 m/s 652 mmHg 44%
    11:00 +28°C° 0 mm 3 m/s 652 mmHg 41%
    12:00 +29°C° 0 mm 4 m/s 651 mmHg 38%
    13:00 +30°C° 0 mm 4 m/s 650 mmHg 35%
    14:00 +30°C° 0 mm 3 m/s 650 mmHg 33%
    15:00 +31°C° 0 mm 3 m/s 650 mmHg 32%
    16:00 +31°C° 0 mm 3 m/s 649 mmHg 30%
    17:00 +28°C° 0,1 mm 3 m/s 649 mmHg 36%
    18:00 +25°C° 0,1 mm 2 m/s 649 mmHg 42%
    19:00 +23°C° 0,1 mm 2 m/s 649 mmHg 48%
    20:00 +21°C° 0,1 mm 2 m/s 649 mmHg 47%
    21:00 +21°C° 0,1 mm 2 m/s 650 mmHg 46%
    22:00 +21°C° 0,1 mm 1 m/s 650 mmHg 45%
    23:00 +21°C° 0 mm 1 m/s 650 mmHg 45%

    23 Août, Jeudi

    Heure Température Précipitation Vent Pression Humidité
    00:00 +20°C° 0 mm 1 m/s 650 mmHg 45%
    01:00 +20°C° 0 mm 1 m/s 650 mmHg 46%
    02:00 +20°C° 0 mm 1 m/s 649 mmHg 47%
    03:00 +19°C° 0 mm 1 m/s 649 mmHg 49%
    04:00 +19°C° 0 mm 1 m/s 649 mmHg 51%
    05:00 +19°C° 0,2 mm 1 m/s 649 mmHg 56%
    06:00 +19°C° 0,2 mm 1 m/s 650 mmHg 61%
    07:00 +19°C° 0,2 mm 1 m/s 650 mmHg 65%
    08:00 +21°C° 0,1 mm 2 m/s 651 mmHg 60%
    09:00 +24°C° 0,1 mm 2 m/s 651 mmHg 54%
    10:00 +26°C° 0,1 mm 2 m/s 652 mmHg 49%
    11:00 +27°C° 0 mm 2 m/s 651 mmHg 43%
    12:00 +29°C° 0 mm 3 m/s 651 mmHg 37%
    13:00 +31°C° 0 mm 3 m/s 651 mmHg 31%
    14:00 +31°C° 0 mm 2 m/s 650 mmHg 31%
    15:00 +31°C° 0 mm 2 m/s 650 mmHg 31%
    16:00 +30°C° 0 mm 2 m/s 649 mmHg 31%
    17:00 +28°C° 0,1 mm 2 m/s 649 mmHg 37%
    18:00 +25°C° 0,1 mm 2 m/s 649 mmHg 44%
    19:00 +23°C° 0,1 mm 2 m/s 649 mmHg 51%
    20:00 +22°C° 0,3 mm 1 m/s 649 mmHg 51%
    21:00 +22°C° 0,3 mm 1 m/s 650 mmHg 51%
    22:00 +21°C° 0,3 mm 1 m/s 650 mmHg 52%
    23:00 +21°C° 0 mm 1 m/s 650 mmHg 51%

    24 Août, Vendredi

    Heure Température Précipitation Vent Pression Humidité
    00:00 +20°C° 0 mm 1 m/s 649 mmHg 51%
    01:00 +20°C° 0 mm 1 m/s 649 mmHg 50%
    02:00 +20°C° 0 mm 1 m/s 649 mmHg 50%
    03:00 +20°C° 0 mm 1 m/s 649 mmHg 51%
    04:00 +20°C° 0 mm 1 m/s 648 mmHg 51%
    05:00 +20°C° 0 mm 1 m/s 649 mmHg 51%
    06:00 +21°C° 0 mm 1 m/s 649 mmHg 51%
    07:00 +21°C° 0 mm 1 m/s 650 mmHg 51%
    08:00 +23°C° 0 mm 1 m/s 650 mmHg 47%
    09:00 +25°C° 0 mm 1 m/s 651 mmHg 44%
    10:00 +27°C° 0 mm 2 m/s 651 mmHg 41%
    11:00 +28°C° 0 mm 2 m/s 651 mmHg 39%
    12:00 +29°C° 0 mm 2 m/s 650 mmHg 37%
    13:00 +30°C° 0 mm 2 m/s 650 mmHg 35%
    14:00 +30°C° 0 mm 2 m/s 649 mmHg 36%
    15:00 +29°C° 0 mm 2 m/s 649 mmHg 37%
    16:00 +29°C° 0 mm 2 m/s 648 mmHg 37%
    17:00 +27°C° 0,2 mm 1 m/s 649 mmHg 43%
    18:00 +25°C° 0,2 mm 1 m/s 649 mmHg 50%
    19:00 +23°C° 0,2 mm 1 m/s 649 mmHg 56%
    20:00 +22°C° 0,3 mm 1 m/s 649 mmHg 56%
    21:00 +22°C° 0,3 mm 1 m/s 650 mmHg 57%
    22:00 +21°C° 0,3 mm 1 m/s 650 mmHg 57%
    23:00 +21°C° 0,2 mm 1 m/s 650 mmHg 58%
    Voir plus